Time,TemperatureF,DewpointF,PressureIn,WindDirection,WindDirectionDegrees,WindSpeedMPH,WindSpeedGustMPH,Humidity,HourlyPrecipIn,Conditions,Clouds,dailyrainin,SoftwareType,DateUTC
2013-09-04 00:05:00,60.9,58.0,29.86,WSW,252,3.0,10.0,91,0.00,,,0.00,weatherlink.com 1.10,2013-09-04 04:05:00,
2013-09-04 00:20:00,61.3,58.0,29.85,West,263,4.0,9.0,90,0.00,,,0.00,weatherlink.com 1.10,2013-09-04 04:20:00,
2013-09-04 00:35:00,61.5,59.0,29.85,West,260,3.0,8.0,90,0.00,,,0.00,weatherlink.com 1.10,2013-09-04 04:35:00,
2013-09-04 00:50:00,61.6,59.0,29.85,SW,235,4.0,8.0,90,0.00,,,0.00,weatherlink.com 1.10,2013-09-04 04:50:00,
2013-09-04 01:05:00,61.6,59.0,29.86,WSW,256,4.0,8.0,90,0.00,,,0.00,weatherlink.com 1.10,2013-09-04 05:05:00,
2013-09-04 01:24:00,62.2,59.0,29.86,West,281,3.0,7.0,88,0.00,,,0.00,weatherlink.com 1.10,2013-09-04 05:24:00,
2013-09-04 01:36:00,62.5,59.0,29.86,WSW,243,4.0,8.0,88,0.00,,,0.00,weatherlink.com 1.10,2013-09-04 05:36:00,
2013-09-04 01:55:00,62.7,59.0,29.85,South,186,0.0,9.0,87,0.00,,,0.00,weatherlink.com 1.10,2013-09-04 05:55:00,
2013-09-04 02:06:00,62.7,59.0,29.85,West,281,4.0,9.0,87,0.00,,,0.00,weatherlink.com 1.10,2013-09-04 06:06:00,
2013-09-04 02:21:00,62.6,59.0,29.85,West,274,6.0,7.0,87,0.00,,,0.00,weatherlink.com 1.10,2013-09-04 06:21:00,
2013-09-04 02:36:00,62.9,59.0,29.84,WSW,250,4.0,11.0,87,0.00,,,0.00,weatherlink.com 1.10,2013-09-04 06:36:00,
2013-09-04 02:51:00,63.0,59.0,29.84,West,266,9.0,9.0,86,0.00,,,0.00,weatherlink.com 1.10,2013-09-04 06:51:00,
2013-09-04 03:06:00,63.1,59.0,29.84,West,259,4.0,10.0,86,0.00,,,0.00,weatherlink.com 1.10,2013-09-04 07:06:00,
2013-09-04 03:21:00,62.9,59.0,29.84,SSW,211,2.0,9.0,86,0.00,,,0.00,weatherlink.com 1.10,2013-09-04 07:21:00,
2013-09-04 03:36:00,62.9,59.0,29.84,WNW,284,4.0,9.0,86,0.00,,,0.00,weatherlink.com 1.10,2013-09-04 07:36:00,
2013-09-04 03:51:00,62.9,59.0,29.85,WSW,238,2.0,5.0,86,0.00,,,0.00,weatherlink.com 1.10,2013-09-04 07:51:00,
2013-09-04 04:06:00,62.7,59.0,29.84,West,281,3.0,7.0,87,0.00,,,0.00,weatherlink.com 1.10,2013-09-04 08:06:00,
2013-09-04 04:21:00,62.5,59.0,29.84,WSW,250,3.0,8.0,87,0.00,,,0.00,weatherlink.com 1.10,2013-09-04 08:21:00,
2013-09-04 04:36:00,62.3,59.0,29.84,WSW,256,1.0,8.0,88,0.00,,,0.00,weatherlink.com 1.10,2013-09-04 08:36:00,
2013-09-04 04:51:00,62.3,59.0,29.85,West,278,3.0,6.0,88,0.00,,,0.00,weatherlink.com 1.10,2013-09-04 08:51:00,
2013-09-04 05:06:00,62.2,59.0,29.85,NW,312,1.0,6.0,88,0.00,,,0.00,weatherlink.com 1.10,2013-09-04 09:06:00,
2013-09-04 05:21:00,62.0,58.0,29.86,West,277,3.0,6.0,87,0.00,,,0.00,weatherlink.com 1.10,2013-09-04 09:21:00,
2013-09-04 05:36:00,62.4,58.0,29.85,WSW,253,1.0,6.0,86,0.00,,,0.00,weatherlink.com 1.10,2013-09-04 09:36:00,
2013-09-04 05:51:00,62.2,58.0,29.86,WNW,300,2.0,4.0,86,0.00,,,0.00,weatherlink.com 1.10,2013-09-04 09:51:00,
2013-09-04 06:06:00,62.1,58.0,29.87,WNW,285,0.0,5.0,86,0.00,,,0.00,weatherlink.com 1.10,2013-09-04 10:06:00,
2013-09-04 06:21:00,61.9,58.0,29.87,WNW,291,0.0,5.0,86,0.00,,,0.00,weatherlink.com 1.10,2013-09-04 10:21:00,
2013-09-04 06:36:00,61.5,58.0,29.88,NW,318,2.0,5.0,87,0.00,,,0.00,weatherlink.com 1.10,2013-09-04 10:36:00,
2013-09-04 06:51:00,61.3,57.0,29.89,West,267,2.0,5.0,87,0.00,,,0.00,weatherlink.com 1.10,2013-09-04 10:51:00,
2013-09-04 07:06:00,60.9,57.0,29.90,WNW,284,1.0,2.0,88,0.00,,,0.00,weatherlink.com 1.10,2013-09-04 11:06:00,
2013-09-04 07:21:00,60.5,57.0,29.91,West,270,0.0,3.0,89,0.00,,,0.00,weatherlink.com 1.10,2013-09-04 11:21:00,
2013-09-04 07:36:00,60.2,57.0,29.92,WNW,302,0.0,2.0,90,0.00,,,0.00,weatherlink.com 1.10,2013-09-04 11:36:00,
2013-09-04 07:51:00,59.9,57.0,29.93,WNW,302,0.0,1.0,90,0.00,,,0.00,weatherlink.com 1.10,2013-09-04 11:51:00,
2013-09-04 08:06:00,59.8,57.0,29.93,NW,322,0.0,3.0,91,0.00,,,0.00,weatherlink.com 1.10,2013-09-04 12:06:00,
2013-09-04 08:21:00,59.8,57.0,29.94,NNW,330,2.0,6.0,91,0.00,,,0.00,weatherlink.com 1.10,2013-09-04 12:21:00,
2013-09-04 08:36:00,59.3,56.0,29.96,West,278,0.0,8.0,89,0.00,,,0.00,weatherlink.com 1.10,2013-09-04 12:36:00,
2013-09-04 08:51:00,58.3,55.0,29.97,NNE,13,0.0,10.0,87,0.00,,,0.00,weatherlink.com 1.10,2013-09-04 12:51:00,
2013-09-04 09:06:00,56.9,53.0,29.98,North,5,2.0,8.0,86,0.00,,,0.00,weatherlink.com 1.10,2013-09-04 13:06:00,
2013-09-04 09:22:00,56.2,51.0,29.99,NE,48,2.0,7.0,82,0.00,,,0.00,weatherlink.com 1.10,2013-09-04 13:22:00,
2013-09-04 09:37:00,56.3,50.0,29.99,ENE,70,1.0,6.0,80,0.00,,,0.00,weatherlink.com 1.10,2013-09-04 13:37:00,
2013-09-04 09:52:00,56.7,50.0,30.00,NE,51,3.0,4.0,79,0.00,,,0.00,weatherlink.com 1.10,2013-09-04 13:52:00,
2013-09-04 10:07:00,56.7,50.0,30.00,North,349,1.0,6.0,79,0.00,,,0.00,weatherlink.com 1.10,2013-09-04 14:07:00,
2013-09-04 10:22:00,56.4,50.0,30.01,WNW,294,1.0,7.0,80,0.00,,,0.00,weatherlink.com 1.10,2013-09-04 14:22:00,
2013-09-04 10:37:00,57.9,51.0,30.01,North,1,4.0,6.0,78,0.00,,,0.00,weatherlink.com 1.10,2013-09-04 14:37:00,
2013-09-04 10:52:00,58.9,50.0,30.01,NE,47,1.0,6.0,73,0.00,,,0.00,weatherlink.com 1.10,2013-09-04 14:52:00,
2013-09-04 11:07:00,59.4,51.0,30.01,WNW,294,0.0,5.0,73,0.00,,,0.00,weatherlink.com 1.10,2013-09-04 15:07:00,
2013-09-04 11:22:00,60.1,51.0,30.01,WNW,297,2.0,6.0,71,0.00,,,0.00,weatherlink.com 1.10,2013-09-04 15:22:00,
2013-09-04 11:37:00,60.2,50.0,30.02,North,351,6.0,9.0,70,0.00,,,0.00,weatherlink.com 1.10,2013-09-04 15:37:00,
2013-09-04 11:52:00,60.6,50.0,30.02,WNW,290,4.0,8.0,68,0.00,,,0.00,weatherlink.com 1.10,2013-09-04 15:52:00,
2013-09-04 12:07:00,61.0,49.0,30.02,NW,318,8.0,11.0,66,0.00,,,0.00,weatherlink.com 1.10,2013-09-04 16:07:00,
2013-09-04 12:22:00,61.1,50.0,30.03,West,264,1.0,9.0,67,0.00,,,0.00,weatherlink.com 1.10,2013-09-04 16:22:00,
2013-09-04 12:37:00,61.3,49.0,30.04,NW,305,6.0,13.0,64,0.00,,,0.00,weatherlink.com 1.10,2013-09-04 16:37:00,
2013-09-04 12:52:00,61.4,46.0,30.03,NNW,346,2.0,9.0,58,0.00,,,0.00,weatherlink.com 1.10,2013-09-04 16:52:00,
2013-09-04 13:07:00,61.9,47.0,30.03,NNW,347,1.0,6.0,59,0.00,,,0.00,weatherlink.com 1.10,2013-09-04 17:07:00,
2013-09-04 13:22:00,62.3,48.0,30.02,WNW,302,4.0,10.0,60,0.00,,,0.00,weatherlink.com 1.10,2013-09-04 17:22:00,
2013-09-04 13:37:00,63.1,50.0,30.03,WNW,284,4.0,9.0,62,0.00,,,0.00,weatherlink.com 1.10,2013-09-04 17:37:00,
2013-09-04 13:52:00,63.3,50.0,30.02,NNW,338,7.0,9.0,63,0.00,,,0.00,weatherlink.com 1.10,2013-09-04 17:52:00,
2013-09-04 14:07:00,64.2,49.0,30.02,NNW,348,4.0,8.0,59,0.00,,,0.00,weatherlink.com 1.10,2013-09-04 18:07:00,
2013-09-04 14:22:00,64.5,49.0,30.01,WNW,297,1.0,9.0,58,0.00,,,0.00,weatherlink.com 1.10,2013-09-04 18:22:00,
2013-09-04 14:37:00,65.0,50.0,30.01,North,8,2.0,8.0,59,0.00,,,0.00,weatherlink.com 1.10,2013-09-04 18:37:00,
2013-09-04 14:52:00,65.0,49.0,30.02,WNW,294,1.0,10.0,56,0.00,,,0.00,weatherlink.com 1.10,2013-09-04 18:52:00,
2013-09-04 15:07:00,65.0,47.0,30.01,NNE,20,4.0,13.0,53,0.00,,,0.00,weatherlink.com 1.10,2013-09-04 19:07:00,
2013-09-04 15:22:00,64.8,47.0,30.02,WNW,285,1.0,7.0,53,0.00,,,0.00,weatherlink.com 1.10,2013-09-04 19:22:00,
2013-09-04 15:37:00,64.2,47.0,30.02,WNW,300,4.0,12.0,53,0.00,,,0.00,weatherlink.com 1.10,2013-09-04 19:37:00,
2013-09-04 15:52:00,64.4,46.0,30.03,West,280,5.0,11.0,51,0.00,,,0.00,weatherlink.com 1.10,2013-09-04 19:52:00,
2013-09-04 16:07:00,63.9,44.0,30.02,West,273,7.0,13.0,49,0.00,,,0.00,weatherlink.com 1.10,2013-09-04 20:07:00,
2013-09-04 16:22:00,63.2,45.0,30.03,WNW,302,2.0,11.0,51,0.00,,,0.00,weatherlink.com 1.10,2013-09-04 20:22:00,
2013-09-04 16:37:00,63.0,43.0,30.03,WSW,253,5.0,13.0,49,0.00,,,0.00,weatherlink.com 1.10,2013-09-04 20:37:00,
2013-09-04 16:52:00,62.5,45.0,30.02,NW,311,12.0,12.0,53,0.00,,,0.00,weatherlink.com 1.10,2013-09-04 20:52:00,
2013-09-04 17:07:00,61.4,44.0,30.03,West,270,5.0,11.0,54,0.00,,,0.00,weatherlink.com 1.10,2013-09-04 21:07:00,
2013-09-04 17:22:00,60.0,44.0,30.03,North,358,6.0,11.0,55,0.00,,,0.00,weatherlink.com 1.10,2013-09-04 21:22:00,
2013-09-04 17:37:00,60.5,47.0,30.03,NW,311,4.0,9.0,61,0.00,,,0.00,weatherlink.com 1.10,2013-09-04 21:37:00,
2013-09-04 17:52:00,59.1,46.0,30.04,NNW,342,3.0,11.0,62,0.00,,,0.00,weatherlink.com 1.10,2013-09-04 21:52:00,
2013-09-04 18:07:00,58.4,43.0,30.04,North,359,2.0,13.0,57,0.00,,,0.00,weatherlink.com 1.10,2013-09-04 22:07:00,
2013-09-04 18:22:00,57.3,43.0,30.05,North,350,5.0,10.0,59,0.00,,,0.00,weatherlink.com 1.10,2013-09-04 22:22:00,
2013-09-04 18:37:00,57.0,44.0,30.04,NW,319,5.0,10.0,63,0.00,,,0.00,weatherlink.com 1.10,2013-09-04 22:37:00,
2013-09-04 18:52:00,56.7,44.0,30.04,NNE,19,3.0,12.0,62,0.00,,,0.00,weatherlink.com 1.10,2013-09-04 22:52:00,
2013-09-04 19:07:00,55.4,44.0,30.05,NNE,26,5.0,7.0,66,0.00,,,0.00,weatherlink.com 1.10,2013-09-04 23:07:00,
2013-09-04 19:22:00,54.5,44.0,30.05,NNW,342,6.0,10.0,69,0.00,,,0.00,weatherlink.com 1.10,2013-09-04 23:22:00,
2013-09-04 19:38:00,53.9,45.0,30.06,NNW,342,8.0,11.0,72,0.00,,,0.00,weatherlink.com 1.10,2013-09-04 23:38:00,
2013-09-04 19:53:00,53.3,44.0,30.06,NW,307,9.0,11.0,72,0.00,,,0.00,weatherlink.com 1.10,2013-09-04 23:53:00,
2013-09-04 20:08:00,52.9,43.0,30.06,NW,319,2.0,11.0,70,0.00,,,0.00,weatherlink.com 1.10,2013-09-05 00:08:00,
2013-09-04 20:23:00,52.4,44.0,30.07,NNE,18,1.0,7.0,72,0.00,,,0.00,weatherlink.com 1.10,2013-09-05 00:23:00,
2013-09-04 20:38:00,52.0,44.0,30.07,North,349,0.0,11.0,73,0.00,,,0.00,weatherlink.com 1.10,2013-09-05 00:38:00,
2013-09-04 20:53:00,51.7,43.0,30.07,NW,318,1.0,8.0,73,0.00,,,0.00,weatherlink.com 1.10,2013-09-05 00:53:00,
2013-09-04 21:08:00,50.8,43.0,30.08,WNW,294,2.0,6.0,75,0.00,,,0.00,weatherlink.com 1.10,2013-09-05 01:08:00,
2013-09-04 21:23:00,50.3,44.0,30.09,NW,319,2.0,7.0,78,0.00,,,0.00,weatherlink.com 1.10,2013-09-05 01:23:00,
2013-09-04 21:53:00,49.0,43.0,30.09,North,352,1.0,5.0,80,0.00,,,0.00,weatherlink.com 1.10,2013-09-05 01:53:00,
2013-09-04 22:07:00,48.3,43.0,30.10,WNW,290,1.0,3.0,81,0.00,,,0.00,weatherlink.com 1.10,2013-09-05 02:07:00,
2013-09-04 22:22:00,47.8,43.0,30.11,NNW,327,2.0,4.0,82,0.00,,,0.00,weatherlink.com 1.10,2013-09-05 02:22:00,
2013-09-04 22:37:00,47.7,43.0,30.10,NW,323,0.0,5.0,82,0.00,,,0.00,weatherlink.com 1.10,2013-09-05 02:37:00,
2013-09-04 22:52:00,47.8,43.0,30.11,NNW,334,1.0,7.0,82,0.00,,,0.00,weatherlink.com 1.10,2013-09-05 02:52:00,
2013-09-04 23:07:00,47.6,42.0,30.11,NNW,333,2.0,4.0,82,0.00,,,0.00,weatherlink.com 1.10,2013-09-05 03:07:00,
2013-09-04 23:22:00,47.1,43.0,30.11,NW,316,2.0,5.0,84,0.00,,,0.00,weatherlink.com 1.10,2013-09-05 03:22:00,
2013-09-04 23:37:00,46.9,43.0,30.11,WNW,292,0.0,4.0,85,0.00,,,0.00,weatherlink.com 1.10,2013-09-05 03:37:00,
2013-09-04 23:52:00,46.7,43.0,30.11,NW,319,1.0,4.0,86,0.00,,,0.00,weatherlink.com 1.10,2013-09-05 03:52:00,